User: anonymous   Login
Location: Cranbrook Institute of Science
(42.5830°N, 83.2450°W)
Time: 02:33:21
(UTC-04:00)
Language:

CZ-4B R/B - Orbit

View from above orbital plane
View from above orbital plane
View from above satellite
View from above satellite

Ground track
Ground track

The orbit data is extracted from the following two-line orbital elements,

1 29093U 06015B   16208.48644831  .00003000  00000-0  78473-4 0  9996
2 29093  97.4853 306.5438 0069901  47.8575 312.8579 15.37096591567459
Epoch (UTC): 26 July 2016 11:40:29
Eccentricity: 0.0069901
inclination: 97.4853°
perigee height: 407 km
apogee height: 502 km
right ascension of ascending node: 306.5438°
argument of perigee: 47.8575°
revolutions per day: 15.37096591
mean anomaly at epoch: 312.8579°
orbit number at epoch: 56745

The dashed part of the orbit path shows where the satellite is in the earth's shadow,  

DLR